Regional Weather Roundup
Issued by NWS

Home | Current Version | Previous Version | Graphics & Text | Print | Product List | Glossary On
Versions: 1 2 3 4 5 6 7 8 9 10 11 12 13 14 15 16 17 18 19 20 21 22 23 24 25 26 27 28 29 30 31 32 33 34 35 36 37 38 39 40 41 42 43 44 45 46 47 48 49 50
000
ASUS43 KLOT 260810
RWRIL

ILLINOIS REGIONAL WEATHER ROUNDUP
NATIONAL WEATHER SERVICE CHICAGO/ROMEOVILLE IL
200 AM CST WED NOV 26 2014

NOTE: "FAIR" INDICATES FEW OR NO CLOUDS BELOW 12,000 FEET WITH NO
SIGNIFICANT WEATHER AND/OR OBSTRUCTIONS TO VISIBILITY.

* THESE STATIONS ARE NOT UNDER NWS QUALITY CONTROL. THEY ALSO MAY NOT
  REPORT WEATHER SUCH AS PRECIPITATION OR FOG.

ILZ001-002-007-009-015-016-024-260900-
NORTHWEST ILLINOIS

CITY           SKY/WX    TMP DP  RH WIND       PRES   REMARKS
MOLINE         CLEAR     12   9  87 E6        30.11F WCI   3
STERLING*      CLEAR     10   7  85 E3        30.13S
SAVANNA*       CLEAR     11   9  88 NE5       30.14S WCI   3
$$

ILZ003-004-008-010-011-017-018-260900-
NORTH CENTRAL ILLINOIS

CITY           SKY/WX    TMP DP  RH WIND       PRES   REMARKS
ROCKFORD       PTCLDY    10   7  87 CALM      30.16F FOG
FREEPORT*      CLEAR      7   4  88 CALM      30.15S FOG
ROCHELLE*      CLEAR     10   9  92 SE7       30.14F FOG     WCI   0
DE KALB*         N/A     12  10  90 CALM      30.16S FOG
PERU*          CLEAR     18  16  92 E6        30.15F WCI  10
$$

ILZ005-006-012>014-019>023-260900-
NORTHEAST ILLINOIS

CITY           SKY/WX    TMP DP  RH WIND       PRES   REMARKS
CHICAGO-OHARE  MOCLDY    20  15  81 CALM      30.17S
CHICAGO-MIDWAY MOCLDY    24  18  77 CALM      30.18S
AURORA         PTCLDY    11   6  81 CALM      30.17S HAZE
LANSING*       CLOUDY    24  19  84 CALM      30.19S
JOLIET*        CLEAR     16  15  94 CALM      30.18S FOG
WAUKEGAN       PTCLDY    12   8  84 W3        30.18R
DUPAGE AIRPORT CLEAR     13  10  88 N3        30.17R FOG
KANKAKEE*      CLEAR    N/A N/A N/A CALM      30.18S
WHEELING       CLOUDY    21  16  81 SW5       30.21R WCI  15
MORRIS*        CLEAR     18  17  96 CALM      30.17R FOG
ROMEOVILLE*    CLEAR     17  16  95 CALM      30.17F
NORTHERLY ISL    N/A     23  18  81 W5          N/A  WCI  17
$$

LMZ740>746-260900-
SOUTHERN LAKE MICHIGAN

STATION/POSITION SKY/WX   TEMP    WIND        PRES    VSBY  WAVE
                          AIR SEA DIR/SP/G                  HT/PER
                          (F)     (DEG/KT/KT) (MB)    (MI)  (FT/S)
SOUTHERN BUOY              28 42  250/ 10/ 14 1022.9R         2/ 3
WAUKEGAN HARBOR            20     270/  4/  7   N/A
HARRISON CRIB              23     210/  5/  7   N/A
BURNHAM HARBOR             23     200/  4/  7   N/A
CALUMET HARBOR             23     200/  3/  5 1020.9S
MICHIGAN CITY              23     190/  7/  9   N/A
$$

ILZ025>027-034>036-040-047-049-050-058-095>099-260900-
WEST-CENTRAL ILLINOIS

CITY           SKY/WX    TMP DP  RH WIND       PRES   REMARKS
QUINCY         PTCLDY    26  20  77 SE6       30.07F WCI  19
GALESBURG*     CLEAR     19  18  96 E5        30.10F WCI  13
MACOMB*        CLEAR     22  21  96 CALM      30.12S
JACKSONVILLE*  CLEAR     28  24  86 SE6       30.11S WCI  22
PITTSFIELD*    PTCLDY    28  24  83 SE5       30.10S WCI  23
$$

ILZ028>032-037-038-041>044-048-051>054-059>061-260900-
CENTRAL ILLINOIS

CITY           SKY/WX    TMP DP  RH WIND       PRES   REMARKS
PONTIAC        CLEAR     20  18  93 E5        30.17S WCI  13
BLOOMINGTON    CLEAR     20  19  96 SE5       30.14S WCI  14
DECATUR        CLEAR     22  20  92 CALM      30.14F
PEORIA         FAIR      24  19  81 SE3       30.13F
LACON*         CLEAR     17  15  90 CALM      30.14S
LINCOLN*       CLEAR     23  21  93 CALM      30.15F
SPRINGFIELD    CLEAR     24  22  91 SE7       30.12F WCI  16
TAYLORVILLE    CLEAR     25  23  93 SE6       30.13F WCI  18
$$

ILZ033-039-045-046-055>057-062-063-260900-
EAST-CENTRAL ILLINOIS

CITY           SKY/WX    TMP DP  RH WIND       PRES   REMARKS
CHAMPAIGN      CLEAR     20  17  88 E6        30.15F WCI  12
DANVILLE*      CLEAR     21  19  92 CALM      30.13S
RANTOUL*       CLEAR     22  19  90 CALM      30.15F
MATTOON        CLEAR     24  21  88 E3        30.14S
PARIS*         CLEAR     24  22  94 CALM      30.17S
$$

ILZ079-100>102-260900-
SOUTHWEST ILLINOIS

CITY           SKY/WX    TMP DP  RH WIND       PRES   REMARKS
ALTON          CLEAR     24  22  91 E3        30.12F
BELLEVILLE     CLEAR     24  24  99 E1        30.13F
CAHOKIA*       CLEAR     28  24  85 S3        30.13F
SPARTA*        CLEAR     26  24  91 SE6       30.14S WCI  20
$$

ILZ064>066-069>071-074>076-080>082-084>086-088>090-092>094-260900-
SOUTH-CENTRAL ILLINOIS

CITY           SKY/WX    TMP DP  RH WIND       PRES   REMARKS
CARBONDALE     CLEAR     20  18  92 CALM      30.15F FOG
CAIRO*         CLEAR     28  25  89 CALM      30.16F
EFFINGHAM*     CLEAR     23  20  89 CALM      30.15S
MARION         CLEAR     27  25  93 CALM      30.16F
MT. VERNON     CLEAR     21  16  79 CALM      30.15F
CENTRALIA*     CLEAR     25  22  89 E3        30.14S
SALEM*           N/A     28  24  88 SE3       30.15S
METROPOLIS*    CLEAR     24  24 100 CALM        N/A  FOG
$$

ILZ067-068-072-073-078-083-087-091-260900-
SOUTHEAST ILLINOIS

CITY           SKY/WX    TMP DP  RH WIND       PRES   REMARKS
LAWRENCEVILLE  CLEAR     26  24  92 E5        30.18S WCI  20
FLORA*         CLEAR     22  22  97 CALM      30.16S
FAIRFIELD*     CLEAR     22  21  95 CALM      30.15F
HARRISBURG*    CLEAR     25  25 100 CALM      30.18S
ROBINSON*      CLEAR     24  22  93 E3        30.18S
CARMI*         CLEAR     24  24 100 CALM      30.17R
$$

ABBREVIATIONS USED IN REMARKS
   TC - TEMPERATURE IN CELSIUS
  WCI - WIND CHILL INDEX
   HX - HEAT INDEX
  VSB - VISIBILITY
$$




USA.gov is the U.S. government's official web portal to all federal, state and local government web resources and services.